516  
ASUS43 KGLD 211608  
RWRGLD  
 
GOODLAND FORECAST AREA HOURLY WEATHER ROUNDUP  
NATIONAL WEATHER SERVICE GOODLAND KS  
900 AM MST MON JAN 21 2019  
   
..OFFICIAL OBSERVATIONS
 
 
 
CITY SKY/WX TMP DP RH WIND PRES REMARKS
 
GOODLAND KS FOG 25 25 100 SE10 29.65R VSB 1/4 WCI 15  
HILL CITY KS CLOUDY 25 24 96 SE10 29.78F WCI 15  
IMPERIAL NEB FOG 21 17 84 SE16 29.69F VSB 1/2 WCI 7  
MCCOOK NEB FOG 20 19 96 SE10 29.77S VSB 1/2 WCI 9  
AKRON CO FOG 25 25 100 SE13 29.56F VSB<1/4 WCI 14  
BURLINGTON CO FOG 28 27 96 SE5 29.61S VSB 1/4  
LIMON CO MOSUNNY 25 24 96 CALM 29.57F  

 
   
..UNOFFICIAL OBSERVATIONS
 
 
 
CITY SKY/WX TMP DP RH WIND PRES REMARKS
 
COLBY KS CLOUDY 27 27 100 SE9 29.70F FOG  
SHARON SPRINGS N/A 25 23 91 SE8 N/A  
KIT CARSON CO N/A 27 20 76 CALM N/A  
YUMA CO FOG 25 23 93 SE9 29.61 VSB 1/2  

 
 
 
CLICK HERE TO GO TO PREVIOUS BULLETINS.

The Nexlab KS Page
The Nexlab CO Page
The Nexlab NE Page Main Text Page